This demonstration page uses our WeatherBlox Daily Observations layout. Learn more.

Left ArrowRight Arrow

39.92423, -83.80882

Hourly Observations for March 19, 2017

Temp ( °F °C ) Dew Point ( °F °C ) Humidity (%) Winds ( mph kmh ) Pressure ( in mb ) Visibility ( mi km ) Precip ( " mm )
12:56 am 00:56 Cloudy 36 2.2 33 0.6 89 89 NW 13 20 30.26 1025 10 16.0934 0 0
1:36 am 01:36 Cloudy 36 2 34 1 93 93 NW 9 15 30.3 1026 10 16.0934 0 0
1:52 am 01:52 Cloudy 36 2 34 1 93 93 NW 12 19 30.3 1026 10 16.0934 0 0
1:56 am 01:56 Cloudy 36 2.2 33 0.6 89 89 NW 12 19 30.26 1025 10 16.0934 0 0
2:56 am 02:56 Cloudy 36 2.2 33 0.6 89 89 NW 7 11 30.27 1025 10 16.0934 0 0
3:56 am 03:56 Cloudy 36 2.2 33 0.6 89 89 NW 6 9 30.27 1025 10 16.0934 0 0
4:56 am 04:56 Cloudy 36 2.2 33 0.6 89 89 NW 6 9 30.28 1025 10 16.0934 0 0
5:56 am 05:56 Cloudy 36 2.2 33 0.6 89 89 NW 7 11 30.29 1026 10 16.0934 0 0
6:56 am 06:56 Cloudy N/A N/A N/A NW 8 13 N/A 10 16.0934 0 0
7:56 am 07:56 Cloudy with Haze N/A N/A N/A NW 9 15 N/A 6 9.65604 0 0
8:56 am 08:56 Cloudy 36 2.2 34 1.1 93 93 NNW 6 9 30.36 1028 8 12.87472 0 0.0254
9:08 am 09:08 Cloudy 36 2 34 1 93 93 NNW 7 11 30.36 1028 8 12.87472 0 0
9:43 am 09:43 Cloudy 37 3 34 1 87 87 N 6 9 30.36 1028 10 16.0934 0 0
9:56 am 09:56 Cloudy 38 3.3 34 1.1 86 86 N 7 11 30.37 1029 10 16.0934 0 0
10:17 am 10:17 Cloudy 37 3 34 1 87 87 N 6 9 30.39 1029 10 16.0934 0 0
10:44 am 10:44 Cloudy 39 4 34 1 81 81 NNW 8 13 30.39 1029 10 16.0934 0 0
10:56 am 10:56 Cloudy 39 3.9 33 0.6 79 79 N 5 7 30.39 1029 10 16.0934 0 0
11:35 am 11:35 Cloudy 39 4 32 0 75 75 N 5 7 30.39 1029 10 16.0934 0 0
11:56 am 11:56 Cloudy 41 5 33 0.6 73 73 NW 5 7 30.39 1029 10 16.0934 0 0
12:21 pm 12:21 Cloudy 41 5 30 -1 66 66 NW 5 7 30.39 1029 10 16.0934 0 0
12:56 pm 12:56 Cloudy 40 4.4 32 0 73 73 ENE 6 9 30.4 1029 10 16.0934 0 0
1:19 pm 13:19 Cloudy 39 4 34 1 81 81 NE 6 9 30.39 1029 10 16.0934 0 0
1:28 pm 13:28 Cloudy 39 4 32 0 75 75 NE 3 6 30.39 1029 10 16.0934 0 0
1:56 pm 13:56 Cloudy 41 5 32 0 70 70 NNW 5 7 30.38 1029 10 16.0934 0 0
2:56 pm 14:56 Cloudy 42 5.6 31 -0.6 65 65 NW 5 7 30.36 1028 10 16.0934 0 0
3:56 pm 15:56 Cloudy 42 5.6 31 -0.6 65 65 WSW 5 7 30.35 1028 10 16.0934 0 0
4:56 pm 16:56 Cloudy 43 6.1 31 -0.6 63 63 WSW 3 6 30.34 1027 10 16.0934 0 0
5:56 pm 17:56 Cloudy 43 6.1 31 -0.6 63 63 NW 3 6 30.32 1027 10 16.0934 0 0
6:10 pm 18:10 Cloudy 43 6 30 -1 61 61 Calm 30.33 1027 10 16.0934 0 0
6:56 pm 18:56 Cloudy 42 5.6 31 -0.6 65 65 Calm 30.36 1028 10 16.0934 0 0
7:56 pm 19:56 Cloudy 40 4.4 32 0 73 73 Calm 30.36 1028 10 16.0934 0 0
8:56 pm 20:56 Cloudy 38 3.3 32 0 79 79 ESE 7 11 30.31 1026 10 16.0934 0 0
9:56 pm 21:56 Mostly Clear 34 1.1 30 -1.1 85 85 ESE 3 6 30.31 1026 10 16.0934 0 0
10:56 pm 22:56 Clear 34 1.1 31 -0.6 89 89 SE 6 9 30.29 1026 10 16.0934 0 0
11:56 pm 23:56 Clear 33 0.6 30 -1.1 89 89 SE 7 11 30.28 1025 10 16.0934 0 0

Powered by AerisWeather